Location: Table Mountain
(47.2500°N, 120.5778°W)
Time: 17:21:14
(UTC-07:00)

N. Korean satellite - Pass Details

Date: 07 October 2017
Orbit: 459 x 517 km, 97.2° (Epoch: 23 October)

Event Time Altitude Azimuth Distance (km) Brightness Sun altitude
Rises 19:08:48 0° 172° (S) 2,572 10.2 -7.5°
Reaches altitude 10° 19:10:54 10° 176° (S) 1,685 9.3 -7.9°
Maximum altitude 19:14:30 66° 258° (WSW) 536 7.0 -8.5°
Drops below altitude 10° 19:18:04 10° 342° (NNW) 1,666 9.5 -9.1°
Sets 19:20:08 0° 345° (NNW) 2,541 10.4 -9.5°
